Back to catalog

STARLINK-5951

AliveCommunicationsVLEO
NORAD 56918·PAYLOAD·🇺🇸 United States

Launched Jun 12, 2023 from Cape Canaveral Space Force Station

Loading…

Next Passes (next 24 hours)

TLE

FreshSource: CelesTrak SupGP

Epoch: Sep 14, 2026, 13:44 UTC

1 56918C 23083AU  26257.57270833 -.00005465  00000+0 -19796-3 0  2575
2 56918  43.0011  83.7560 0001317 247.8584 260.5998 15.27577873    11

Track STARLINK-5951 in real time with AllMySat

Download on the App Store